sat.trackr.live / text

‹ back to catalog

STARLINK-31340

NORAD 59170 · 2024-044U

PAYLOAD ACTIVE UNKNOWN

§ Identity

Operator
Country
US
Launch date
2024-03-04
Launch site
AFETR
Launch vehicle
Mass (kg)
RCS (m²)

Purposes: comms

External: N2YO · Heavens-Above · Gunter

§ Orbital elements

Epoch: 2026-09-20T20:55:51.746880Z

Period
94.27 min
Inclination
43.0041°
Eccentricity
0.0001809
Mean motion
15.27583520 rev/d
Perigee alt
481.8 km
Apogee alt
484.3 km
Semi-major
6,861.2 km
B*
3.0304e-5
RAAN
45.1863°
Arg perigee
275.4228°
Mean anomaly
84.6418°
Rev number
14,387

§ Raw data

STARLINK-313401 59170U 24044U   26263.87212670  .00000572  00000+0  30304-4 0  99952 59170  43.0041  45.1863 0001809 275.4228  84.6418 15.27583520143873

JSON: /api/v1/satellites/59170 · /tle

For live sub-satellite position, see the globe view (requires WebGL).

§ Visibility from observer

Set your observer location to see the next 7 days of passes ≥ 10°. The values pass through the URL so the page stays shareable.

No JS? Fill the form by hand. The geolocation button needs JavaScript.